sat.trackr.live / text

‹ back to catalog

STARLINK-31262

NORAD 58847 · 2024-017X

PAYLOAD ACTIVE UNKNOWN

§ Identity

Operator
Country
US
Launch date
2024-01-24
Launch site
AFWTR
Launch vehicle
Mass (kg)
RCS (m²)

Purposes: comms

External: N2YO · Heavens-Above · Gunter

§ Orbital elements

Epoch: 2026-05-25T03:49:53.804064Z

Period
94.11 min
Inclination
53.1626°
Eccentricity
0.0001399
Mean motion
15.30181578 rev/d
Perigee alt
474.3 km
Apogee alt
476.2 km
Semi-major
6,853.4 km
B*
5.9027e-5
RAAN
298.7821°
Arg perigee
91.2315°
Mean anomaly
268.8846°
Rev number
13,048

§ Raw data

STARLINK-312621 58847U 24017X   26145.15965051  .00001388  00000+0  59027-4 0  99922 58847  53.1626 298.7821 0001399  91.2315 268.8846 15.30181578130484

JSON: /api/v1/satellites/58847 · /tle

For live sub-satellite position, see the globe view (requires WebGL).

§ Visibility from observer

Set your observer location to see the next 7 days of passes ≥ 10°. The values pass through the URL so the page stays shareable.

No JS? Fill the form by hand. The geolocation button needs JavaScript.